M2 PATHFINDER

Last updated on Thu Nov 21 2024 00:03:40 GMT+0000 (Coordinated Universal Time)

1 45727U 20037E 24324.94084985 .00005755 00000+0 47346-3 0 9997 2 45727 97.7796 140.8781 0011598 324.4835 35.5614 14.99465327239260
UTC large
Height (km)
Speed (km/s)
/
Latitude / Longitude
Inclination (degrees)
Orbital Period (minutes)
Azimuth
Elevation
Range (km)
Doppler Factor

Next 0 passes for location: London (51.5072 / 0.1276)

Sorry there are no passes over London.